Terug naar catalogus

COSMOS 2251 DEB

ActiefLEO
NORAD 35015·DEBRIS·🇷🇺 Russia

Gelanceerd Jun 16, 1993 vanaf Plesetsk Cosmodrome

Loading…

Volgende Passages (komende 24 uur)

TLE

VersSource: Space-Track

Epoch: Sep 13, 2026, 06:47 UTC

1 35015U 93036AGC 26256.28312148  .00001612  00000-0  42452-3 0  9995
2 35015  73.9450  78.2634 0073555 244.2707 291.0182 14.48310307694132

Volg COSMOS 2251 DEB in realtime met AllMySat

Download on the App Store